Simultaneous Nadir Overpasses (SNOs) Predictions

Prediction of SNOs between GOES-17 and NOAA-19 Satellite Orbit:

Table of predicted SNOs for the next 14.0 days since TLE Epoch: 10/5/2024
Index Date Time (GOES-17) GOES-17 Lat,Lon NOAA-19 Lat,Lon Distance(km) Time Diff (sec)
1 10/05/2024 04:39:31 0.01,-104.68 0.00,-107.80 346.64 80
2 10/06/2024 04:24:15 0.01,-104.68 0.05,-104.64 6.37 80
3 10/07/2024 04:11:50 -0.02,-104.68 0.68,-101.61 350.74 80
4 10/09/2024 16:30:58 0.02,-104.73 0.36,-106.17 164.37 80
5 10/10/2024 16:21:13 0.03,-104.73 -0.35,-103.15 179.67 80
6 10/13/2024 04:40:22 -0.03,-104.67 -0.75,-107.71 347.30 80
7 10/14/2024 04:25:16 -0.03,-104.67 -0.06,-104.69 4.25 80
8 10/15/2024 04:12:51 -0.03,-104.66 0.63,-101.67 341.36 80
9 10/17/2024 16:31:59 0.01,-104.71 0.36,-106.24 174.23 80
10 10/18/2024 16:22:13 0.01,-104.71 -0.35,-103.22 170.35 80
